This is the latest recevied weather packets stored in our database for station/object LRTM. If no packets are shown the sender has not sent any weather packets the latest 10 day(s).
| Time | Temp. | Humidity | Pressure | Rain* | Wind** | Luminosity | Snow |
|---|---|---|---|---|---|---|---|
| 1778016807 | 10° C | 71% | 1013 hPa | - | - | - | - |
| 1778015906 | 8.89° C | 71% | 1013 hPa | - | - | - | - |
| 1778013206 | 10° C | 67% | 1013 hPa | - | - | - | - |
| 1778012337 | 12.22° C | 63% | 1012 hPa | - | - | - | - |
| 1778011407 | 12.22° C | 63% | 1012 hPa | - | - | - | - |
| 1778010506 | 12.22° C | 63% | 1012 hPa | - | - | - | - |
| 1778009606 | 12.22° C | 63% | 1012 hPa | - | - | - | - |
| 1778008706 | 13.89° C | 59% | 1012 hPa | - | - | - | - |
| 1778007806 | 13.89° C | 59% | 1012 hPa | - | - | - | - |
| 1778006907 | 15° C | 55% | 1012 hPa | - | - | - | - |
| 1778006007 | 15° C | 55% | 1012 hPa | - | - | - | - |
| 1778005107 | 17.78° C | 49% | 1012 hPa | - | - | - | - |
| 1778003304 | 20° C | 40% | 1011 hPa | - | - | - | - |
| 1778002406 | 20° C | 40% | 1011 hPa | - | - | - | - |
| 1778001506 | 22.78° C | 38% | 1011 hPa | - | - | - | - |
| 1778000607 | 22.78° C | 38% | 1011 hPa | - | - | - | - |
| 1777999706 | 26.11° C | 20% | 1012 hPa | - | - | - | - |
| 1777998806 | 26.11° C | 20% | 1012 hPa | - | - | - | - |
| 1777997907 | 27.22° C | 18% | 1012 hPa | - | - | - | - |
| 1777997007 | 27.22° C | 18% | 1012 hPa | - | - | - | - |
| 1777996107 | 27.22° C | 17% | 1012 hPa | - | - | - | - |
| 1777995206 | 27.22° C | 17% | 1012 hPa | - | - | - | - |
| 1777994314 | 26.11° C | 20% | 1012 hPa | - | - | - | - |
| 1777993407 | 26.11° C | 20% | 1012 hPa | - | - | - | - |
| 1777992507 | 27.22° C | 20% | 1012 hPa | - | - | - | - |
* Rain since midnight (hover to see other rain measurements)
** Current wind speed in m/s (hover to see current wind gust speed)